Flag for U.S.A. Weather past 2 weeks in French Lick, Indiana, U.S.A.

Now
66 °F

Clear.


Feels Like: 66 °F
Forecast: 67 / 88 °F
Wind: 3 mph from South

Location: Huntingburg Airport

Current Time: Jul 6, 2015 at 3:57:26 AM

Latest Report: Jul 6, 2015 at 3:35 AM


Visibility: 5 mi

Pressure: 30.04 "Hg

Humidity: 88%

Dew point: 63 °F

Location of French LickLocation

Historic Weather in French Lick — Graph

°F

French Lick temperature yesterday

Maximum temperature yesterday: 82 °F (at 3:35 PM)
Minimum temperature yesterday: 68 °F (at 4:15 AM)
Average temperature yesterday: 74 °F

Past Weeks' High & Low Weather Summary

 TemperatureHumidityPressure
High88 °F (Jun 22, 3:55 PM)94% (Jun 21, 7:35 AM)30.19 "Hg (Jun 21, 7:35 AM)
Low54 °F (Jun 28, 6:35 AM)42% (Jun 28, 12:35 PM)29.79 "Hg (Jun 29, 6:15 AM)
Average74 °F78%29.96 "Hg
* Reported Jun 21 2:15 AM — Jul 6 2:55 AM, French Lick, Weather by CustomWeather, © 2015

Note: Actual official high and low records may vary slightly from our data, if they occured in-between our weather recording intervals... More about our weather records

Advertising

French Lick weather history for previous 24 hours

 ConditionsComfort  
Time TempWeatherWind HumidityBarometerVisibility
2:55 AM
Mon, Jul 6
70 °FClear.5 mph83%30.04 "Hg7 mi
2:35 AM70 °FClear.3 mph83%30.04 "Hg8 mi
2:15 AM70 °FClear.7 mph83%30.04 "Hg7 mi
1:55 AM70 °FClear.5 mph83%30.04 "Hg7 mi
1:35 AM70 °FClear.5 mph83%30.05 "Hg7 mi
1:15 AM70 °FClear.5 mph83%30.06 "Hg7 mi
12:55 AM70 °FClear.5 mph88%30.07 "Hg7 mi
12:35 AM70 °FClear.6 mph88%30.07 "Hg6 mi
12:15 AM70 °FClear.6 mph88%30.08 "Hg7 mi
11:35 PM
Sun, Jul 5
72 °FClear.3 mph83%30.09 "Hg7 mi
11:15 PM72 °FClear.No wind83%30.09 "Hg8 mi
10:55 PM72 °FClear.No wind83%30.09 "Hg8 mi
10:35 PM72 °FClear.3 mph83%30.07 "Hg9 mi
10:15 PM73 °FClear.5 mph83%30.07 "Hg7 mi
9:55 PM73 °FSunny.3 mph83%30.06 "Hg8 mi
9:35 PM75 °FSunny.No wind83%30.05 "Hg6 mi
9:15 PM75 °FSunny.No wind83%30.04 "Hg9 mi
8:55 PM75 °FSunny.No wind83%30.04 "Hg9 mi
8:35 PM77 °FSunny.5 mph79%30.04 "Hg10 mi
8:15 PM79 °FSunny.5 mph74%30.04 "Hg10 mi
7:55 PM79 °FSunny.6 mph74%30.04 "Hg10 mi
7:35 PM81 °FSunny.6 mph66%30.04 "Hg10 mi
7:15 PM81 °FSunny.No wind66%30.03 "Hg10 mi
6:55 PM81 °FSunny.3 mph66%30.03 "Hg10 mi
6:35 PM81 °FSunny.3 mph62%30.04 "Hg10 mi
6:15 PM82 °FSunny.No wind58%30.05 "Hg10 mi
5:55 PM81 °FPassing clouds.3 mph66%30.06 "Hg10 mi
5:35 PM81 °FSunny.3 mph66%30.06 "Hg10 mi
5:15 PM81 °FPassing clouds.No wind66%30.06 "Hg10 mi
4:55 PM81 °FBroken clouds.3 mph62%30.06 "Hg10 mi
4:35 PM82 °FSunny.3 mph58%30.06 "Hg10 mi
3:55 PM82 °FSunny.6 mph55%30.07 "Hg10 mi
3:35 PM82 °FSunny.5 mph62%30.07 "Hg10 mi
3:15 PM81 °FPassing clouds.6 mph66%30.07 "Hg9 mi
2:55 PM81 °FScattered clouds.6 mph70%30.07 "Hg9 mi
2:35 PM81 °FScattered clouds.7 mph66%30.08 "Hg10 mi
2:15 PM81 °FSunny.No wind70%30.08 "Hg10 mi
1:55 PM81 °FSunny.6 mph70%30.08 "Hg10 mi
1:35 PM81 °FSunny.5 mph70%30.08 "Hg10 mi
1:15 PM79 °FSunny.5 mph74%30.08 "Hg10 mi
12:55 PM79 °FSunny.No wind74%30.09 "Hg10 mi
12:35 PM77 °FSunny.No wind79%30.09 "Hg9 mi
12:15 PM77 °FSunny.6 mph79%30.09 "Hg10 mi
11:55 AM75 °FSunny.6 mph78%30.09 "Hg10 mi
11:35 AM75 °FSunny.6 mph78%30.08 "Hg9 mi
11:15 AM75 °FSunny.3 mph83%30.08 "Hg8 mi
10:55 AM73 °FSunny.3 mph83%30.08 "Hg8 mi
10:35 AM73 °FSunny.No wind83%30.08 "Hg7 mi
10:15 AM73 °FSunny.3 mph83%30.08 "Hg7 mi
9:55 AM73 °FSunny.5 mph83%30.07 "Hg6 mi
9:35 AM73 °FSunny.6 mph83%30.07 "Hg6 mi
8:55 AM72 °FSunny.5 mph88%30.07 "Hg5 mi
8:35 AM72 °FScattered clouds.No wind83%30.07 "Hg5 mi
8:15 AM70 °FPartly sunny.5 mph88%30.07 "Hg4 mi
7:55 AM70 °FBroken clouds.3 mph88%30.08 "Hg3 mi
7:35 AM70 °FScattered clouds.3 mph83%30.07 "Hg3 mi
7:15 AM68 °FPassing clouds.No wind88%30.07 "Hg3 mi
6:55 AM68 °FPassing clouds.No wind88%30.07 "Hg3 mi
6:35 AM68 °FClear.3 mph88%30.06 "Hg3 mi
6:15 AM68 °FPassing clouds.No wind88%30.05 "Hg5 mi
5:55 AM68 °FPartly cloudy.3 mph88%30.05 "Hg5 mi
5:35 AM68 °FMostly cloudy.3 mph88%30.05 "Hg3 mi
5:15 AM68 °FPassing clouds.No wind88%30.03 "Hg4 mi
4:55 AM68 °FPassing clouds.No wind88%30.03 "Hg3 mi
4:35 AM70 °FClear.No wind83%30.02 "Hg5 mi
4:15 AM68 °FClear.No wind88%30.02 "Hg5 mi
3:55 AM70 °FPassing clouds.No wind88%30.02 "Hg4 mi
3:35 AM70 °FPassing clouds.No wind88%30.02 "Hg4 mi
3:15 AM70 °FPassing clouds.No wind88%30.02 "Hg5 mi
Weather by CustomWeather, © 2015

See weather overviewHow to use our weather pages